Location: Stony Creek
(40.9500°S, 175.8500°E)
Time: 09:16:17
(UTC+00:00)

Aureole 3 - Pass Details

Date: 15 May 2026
Orbit: 372 x 1023 km, 82.5° (Epoch: 10 June)

Event Time Altitude Azimuth Distance (km) Brightness Sun altitude
Exits shadow 17:25:58 46° 15° (NNE) 550 3.4 -21.0°
Drops below altitude 10° 17:28:21 10° 9° (N) 1,503 5.7 -20.6°
Sets 17:30:28 0° 8° (N) 2,428 6.8 -20.2°
